Miscellaneous Local Product
Issued by NWS Hastings, NE

Home | Current Version | Previous Version | Graphics & Text | Print | Product List | Glossary On
Versions: 1 2 3 4 5 6 7 8 9 10 11 12 13 14 15 16 17 18 19 20 21 22 23 24 25 26 27 28 29 30 31 32 33 34 35 36 37 38 39 40 41 42 43 44 45 46 47 48 49 50
000
AXUS43 KGID 160702
MISGRI

GID CWA HOURLY WEATHER ROUNDUP
NATIONAL WEATHER SERVICE HASTINGS NE
200 AM CDT TUE SEP 16 2014

NOTE: "FAIR" INDICATES FEW OR NO CLOUDS BELOW 12,000 FEET WITH NO
SIGNIFICANT WEATHER AND/OR OBSTRUCTIONS TO VISIBILITY.

...SOUTH CENTRAL NEBRASKA...

CITY           SKY/WX    TMP DP  RH WIND       PRES   REMARKS
GRAND ISLAND   CLEAR     47  43  86 S6        30.27R
HASTINGS       CLEAR     48  42  80 SE7       30.26S
KEARNEY        CLEAR     45  41  87 SE6       30.26S
ORD            CLEAR     41  39  93 CALM      30.24S
AURORA         CLEAR     46  42  88 S6        30.27R
LEXINGTON        N/A     47  44  87 SE7       30.25S FOG
HOLDREGE       CLEAR     46  42  86 CALM      30.25F
HEBRON         CLEAR     42  40  92 CALM      30.28R

...NEBRASKA PANHANDLE...

CITY           SKY/WX    TMP DP  RH WIND       PRES   REMARKS
CHADRON        CLEAR     58  47  66 S7        30.08S
ALLIANCE       PTCLDY    52  47  83 S12       30.15F
SCOTTSBLUFF    PTCLDY    53  49  86 E10       30.14F
SIDNEY         PTCLDY    55  50  83 S10       30.19F

...WESTERN AND NORTH CENTRAL NEBRASKA...

CITY           SKY/WX    TMP DP  RH WIND       PRES   REMARKS
VALENTINE      CLEAR     51  41  68 S8        30.17S
AINSWORTH      CLEAR     48  40  74 S13       30.19S
ONEILL         CLEAR     45  41  88 S6        30.23F
BROKEN BOW     CLEAR     39  37  92 CALM      30.24S
IMPERIAL       CLEAR     50  43  77 S9        30.23F
NORTH PLATTE   CLEAR     49  42  77 S7        30.23S
MCCOOK         CLEAR     50  43  77 SE8       30.25F

...EASTERN NEBRASKA...

CITY           SKY/WX    TMP DP  RH WIND       PRES   REMARKS
NORFOLK        CLEAR     42  40  92 CALM      30.26S
SO SIOUX CITY  CLEAR     41  39  93 CALM      30.27R
TEKAMAH        CLEAR     43  40  89 CALM      30.27S
ALBION         CLEAR     39  37  93 CALM      30.27R
OMAHA EPPLEY   PTCLDY    48  46  93 CALM      30.28R FOG
OFFUTT AFB     CLEAR     42  42 100 CALM      30.27S
MILLARD        CLEAR     46  45  96 CALM      30.28R FOG
LINCOLN        CLEAR     43  41  93 CALM      30.29R
NEBRASKA CITY  CLEAR     50  41  70 CALM      30.28R
BEATRICE       CLEAR     42  41  95 CALM      30.28S
FALLS CITY     CLEAR     46  44  93 W3        30.27R

...NORTHERN KANSAS...

CITY           SKY/WX    TMP DP  RH WIND       PRES   REMARKS
GOODLAND       CLOUDY    53  51  93 S10       30.27F
HILL CITY      CLEAR     45  42  89 CALM      30.27S
NORTON         SUNNY     48  39  71 SE5       30.26R
PHILLIPSBURG   CLEAR     46  45  93 CALM      30.27S
SMITH CENTER   CLEAR     46  43  87 E9        30.27S
BELOIT         CLEAR     48  46  93 E5        30.26S
HAYS           CLEAR     52  43  71 E5        30.26S
RUSSELL        CLEAR     49  46  90 E7        30.25S
CONCORDIA      CLEAR     46  45  96 SE3       30.27S
SALINA         CLEAR     56  49  77 NE3       30.27R
TOPEKA         CLEAR     52  49  89 CALM      30.27R



USA.gov is the U.S. government's official web portal to all federal, state and local government web resources and services.